Tenerife, Spain

9:38 PM WEST on June 22, 2018 (GMT +0100)
Tenerife

Weather History for GCXO - March, 2018

Change the Weather History Date:

Wednesday, March 14, 2018

  Actual Average Record
Temperature  
Mean Temperature 58 °F -  
Max Temperature 68 °F 62 °F 73 °F (2009)
Min Temperature 48 °F 50 °F 41 °F (2011)
Degree Days  
Heating Degree Days 7    
Growing Degree Days 8 (Base 50)    
Moisture  
Dew Point 53 °F    
Average Humidity 85    
Maximum Humidity 100    
Minimum Humidity 59    
Precipitation  
Precipitation 0.00 in - - ()
Sea Level Pressure  
Sea Level Pressure 30.15 in    
Wind  
Wind Speed 8 mph ()    
Max Wind Speed 16 mph    
Max Gust Speed -    
Visibility 7.0 miles    
Events Fog    
Averages and records for this station are not official NWS values.
T = Trace of Precipitation, MM = Missing Value Source: Averaged Metar Reports

Daily Weather History Graph

Daily Weather History Graph

Search for Another Location

Airport or City:

Astronomy

Mar. 14, 2018 Rise Set
Actual Time 7:16 AM WET 7:13 PM WET
Civil Twilight 6:52 AM WET 7:36 PM WET
Nautical Twilight 6:25 AM WET 8:04 PM WET
Astronomical Twilight 5:58 AM WET 8:31 PM WET
Moon 5:26 AM WET (3/14) 4:36 PM WET (3/14)
Length of Visible Light 12h 43m
Length of Day
11h 56m
Waning Crescent, 9% of the Moon is Illuminated
Mar 14
Waning Crescent
Mar 17
New
Mar 24
First Quarter
Mar 31
Full
Apr 8
Last Quarter

Hourly Weather History & Observations

Time (WET) Temp. Dew Point Humidity Pressure Visibility Wind Dir Wind Speed Gust Speed Precip Events Conditions
12:00 AM 53 °F 49 °F 81% 30.21 in 19 mi West 6.9 mph - -  
12:00 AM 53.6 °F 48.2 °F 82% 30.21 in 6.2 mi West 5.8 mph - N/A   Unknown
1:00 AM 51.8 °F 50.0 °F 94% 30.21 in 6.2 mi West 10.4 mph - N/A   Unknown
1:30 AM 51.8 °F 50.0 °F 94% 30.21 in 6.2 mi West 11.5 mph - N/A   Scattered Clouds
2:00 AM 53.6 °F 51.8 °F 94% 30.18 in 6.2 mi West 9.2 mph - N/A   Partly Cloudy
2:30 AM 51.8 °F 50.0 °F 94% 30.18 in 6.2 mi West 11.5 mph - N/A   Unknown
3:00 AM 53.6 °F 51.8 °F 94% 30.18 in 6.2 mi West 11.5 mph - N/A   Partly Cloudy
3:30 AM 53.6 °F 50.0 °F 88% 30.15 in 6.2 mi Variable 1.2 mph - N/A   Unknown
4:00 AM 50.0 °F 48.2 °F 94% 30.15 in 6.2 mi Variable 1.2 mph - N/A   Unknown
4:30 AM 51.8 °F 50.0 °F 94% 30.15 in 3.7 mi WNW 3.5 mph - N/A   Partly Cloudy
5:00 AM 51.8 °F 50.0 °F 94% 30.15 in 1.1 mi West 8.1 mph - N/A   Scattered Clouds
5:30 AM 50.0 °F 46.4 °F 87% 30.15 in 6.2 mi Variable 2.3 mph - N/A   Partly Cloudy
6:00 AM 50 °F 47 °F 85% 30.16 in 19 mi NW 2.3 mph - -   Scattered Clouds
6:00 AM 50.0 °F 46.4 °F 87% 30.15 in 6.2 mi Variable 2.3 mph - N/A   Partly Cloudy
6:30 AM 50.0 °F 48.2 °F 94% 30.15 in 6.2 mi West 11.5 mph - N/A   Scattered Clouds
6:44 AM 51.8 °F 51.8 °F 100% 30.15 in 3.7 mi West 11.5 mph - N/A Fog Patches of Fog
7:00 AM 53.6 °F 53.6 °F 100% 30.15 in 3.7 mi West 9.2 mph - N/A Fog Patches of Fog
8:00 AM 53.6 °F 53.6 °F 100% 30.15 in 6.2 mi WNW 16.1 mph - N/A   Mostly Cloudy
8:30 AM 55.4 °F 55.4 °F 100% 30.15 in 6.2 mi West 13.8 mph - N/A   Mostly Cloudy
9:00 AM 57.2 °F 55.4 °F 94% 30.18 in 6.2 mi West 15.0 mph - N/A   Scattered Clouds
9:30 AM 59.0 °F 55.4 °F 88% 30.18 in 6.2 mi WNW 16.1 mph - N/A   Mostly Cloudy
10:00 AM 57.2 °F 53.6 °F 88% 30.18 in 6.2 mi WNW 16.1 mph - N/A   Mostly Cloudy
10:30 AM 60.8 °F 53.6 °F 77% 30.18 in 6.2 mi WNW 11.5 mph - N/A   Mostly Cloudy
11:00 AM 59.0 °F 51.8 °F 77% 30.18 in 6.2 mi WNW 4.6 mph - N/A   Partly Cloudy
11:30 AM 64.4 °F 55.4 °F 73% 30.18 in 6.2 mi Variable 1.2 mph - N/A   Partly Cloudy
12:00 PM 65 °F 55 °F 62% 30.13 in 10 mi North 4.6 mph - -   Scattered Clouds
12:00 PM 62.6 °F 53.6 °F 72% 30.18 in 6.2 mi Variable 3.5 mph - N/A   Partly Cloudy
12:30 PM 66.2 °F 55.4 °F 68% 30.18 in 6.2 mi SSE 4.6 mph - N/A   Partly Cloudy
1:00 PM 64.4 °F 55.4 °F 73% 30.15 in 6.2 mi Variable 4.6 mph - N/A   Partly Cloudy
1:30 PM 66.2 °F 53.6 °F 64% 30.15 in 6.2 mi NW 8.1 mph - N/A   Partly Cloudy
2:00 PM 66.2 °F 55.4 °F 68% 30.15 in 6.2 mi Variable 4.6 mph - N/A   Partly Cloudy
2:30 PM 66.2 °F 57.2 °F 73% 30.12 in 6.2 mi SE 5.8 mph - N/A   Partly Cloudy
3:00 PM 65 °F 54 °F 59% 30.09 in 19 mi WNW 12.7 mph - -   Scattered Clouds
3:00 PM 64.4 °F 53.6 °F 68% 30.12 in 6.2 mi NW 11.5 mph - N/A   Partly Cloudy
3:30 PM 62.6 °F 53.6 °F 72% 30.12 in 6.2 mi WNW 15.0 mph - N/A   Partly Cloudy
4:00 PM 64.4 °F 55.4 °F 73% 30.12 in 6.2 mi WNW 16.1 mph - N/A   Scattered Clouds
4:30 PM 62.6 °F 53.6 °F 72% 30.12 in 6.2 mi WNW 13.8 mph - N/A   Scattered Clouds
5:00 PM 60.8 °F 53.6 °F 77% 30.12 in 6.2 mi NW 10.4 mph - N/A   Mostly Cloudy
6:00 PM 59 °F 54 °F 79% 30.09 in 19 mi West 11.5 mph - -   Mostly Cloudy
6:00 PM 59.0 °F 55.4 °F 88% 30.12 in 6.2 mi West 11.5 mph - N/A   Mostly Cloudy
6:30 PM 59.0 °F 55.4 °F 88% 30.12 in 6.2 mi WNW 11.5 mph - N/A   Mostly Cloudy
7:00 PM 57.2 °F 53.6 °F 88% 30.12 in 6.2 mi West 9.2 mph - N/A   Mostly Cloudy
7:30 PM 55.4 °F 53.6 °F 94% 30.12 in 6.2 mi West 8.1 mph - N/A   Mostly Cloudy
8:00 PM 55.4 °F 53.6 °F 94% 30.12 in 6.2 mi West 11.5 mph - N/A   Scattered Clouds
8:30 PM 55.4 °F 53.6 °F 94% 30.12 in 6.2 mi West 12.7 mph - N/A   Scattered Clouds
9:00 PM - - %  in - Calm Calm - -  
9:00 PM 55.4 °F 53.6 °F 94% 30.12 in 6.2 mi West 12.7 mph - N/A   Scattered Clouds
9:30 PM 55.4 °F 53.6 °F 94% 30.12 in 6.2 mi West 9.2 mph - N/A   Scattered Clouds
10:00 PM 53.6 °F 51.8 °F 94% 30.12 in 6.2 mi West 3.5 mph - N/A   Partly Cloudy
10:30 PM 53.6 °F 51.8 °F 94% 30.12 in 6.2 mi West 9.2 mph - N/A   Scattered Clouds
11:00 PM 53.6 °F 51.8 °F 94% 30.12 in 6.2 mi West 5.8 mph - N/A   Partly Cloudy
11:30 PM 53.6 °F 51.8 °F 94% 30.12 in 6.2 mi West 9.2 mph - N/A   Unknown